AO-07 1 07530U 74089B 26256.82304019 -.00000042 00000-0 29279-4 0 9991 2 07530 101.9920 270.9964 0012047 323.5519 209.7723 12.53699607371625 UO-11 1 14781U 84021B 26256.47828218 .00001036 00000-0 11052-3 0 9999 2 14781 97.8167 221.1263 0006079 248.5176 111.5394 14.90988236270286 LO-19 1 20442U 90005G 26256.02000852 .00000054 00000-0 35871-4 0 9991 2 20442 98.8824 280.2345 0010685 312.1961 47.8315 14.34143470914980 AO-27 1 22825U 93061C 26256.17322216 .00000062 00000-0 40731-4 0 9990 2 22825 98.6800 323.5190 0008071 194.7507 165.3441 14.30960867719582 FO-29 1 24278U 96046B 26256.80884164 -.00000016 00000-0 20880-4 0 9998 2 24278 98.5170 93.5313 0349125 226.3391 130.8318 13.53277958485156 GO-32 1 25397U 98043D 26256.49984853 .00000027 00000-0 31798-4 0 9992 2 25397 99.0151 251.5187 0001110 15.6211 344.5001 14.24442600463907 ISS 1 25544U 98067A 26256.62713073 .00005522 00000-0 10793-3 0 9997 2 25544 51.6309 222.3825 0004921 137.6518 222.4851 15.49103177585467 NO-44 1 26931U 01043C 26256.72239409 .00000058 00000-0 52735-4 0 9995 2 26931 67.0528 15.2724 0005736 272.4834 87.5611 14.31983338303123 SO-50 1 27607U 02058C 26256.28443401 .00000759 00000-0 10702-3 0 9998 2 27607 64.5514 216.3780 0072084 246.3047 113.0485 14.83208883277523 CO-55 1 27844U 03031E 26256.47786468 .00000188 00000-0 10045-3 0 9993 2 27844 98.6771 263.9411 0008451 292.2763 67.7520 14.24380629204248 RS-22 1 27939U 03042A 26256.83948097 .00000452 00000-0 77696-4 0 9998 2 27939 98.3476 83.7279 0011206 354.2699 130.2368 14.73597401228605 CO-65 1 32785U 08021C 26256.72534625 .00003526 00000-0 22005-3 0 9999 2 32785 97.8372 240.0788 0010466 88.0016 272.2411 15.10152337998555 CO-66 1 32791U 08021J 26256.51441970 .00015616 00000-0 45447-3 0 9991 2 32791 97.7562 258.8441 0003168 44.3342 315.8154 15.35516817 829 RS-30 1 32953U 08025A 26256.86581086 .00000065 00000-0 39195-3 0 9991 2 32953 82.5027 300.2887 0020679 117.1739 243.1452 12.43183082830711 SRMSAT 1 37841U 11058D 26256.08625225 .00000366 00000-0 54623-4 0 9998 2 37841 19.9711 247.4276 0011987 91.1670 323.4658 14.11592011770252 ZACUBE-1 1 39417U 13066B 26256.84340602 .00004466 00000-0 34173-3 0 9999 2 39417 97.8139 219.6344 0039854 316.6251 43.1839 15.01798687694037 Delfi-N3xt 1 39428U 13066N 26256.22598584 .00003876 00000-0 33323-3 0 9997 2 39428 97.8295 176.4930 0071353 273.9705 85.3361 14.96070314687787 GOMX-1 1 39430U 13066Q 26256.83661564 .00001306 00000-0 20072-3 0 9999 2 39430 97.6435 91.7122 0128530 151.9885 208.8319 14.69690859682939 LO-74 1 39440U 13066AA 26256.40202218 .00003125 00000-0 28714-3 0 9992 2 39440 97.8980 205.8183 0058623 94.6348 266.1570 14.94255000690167 AO-73 1 39444U 13066AE 26256.78565416 .00005627 00000-0 34061-3 0 9990 2 39444 97.8383 230.1993 0033412 261.6863 98.0577 15.10579987693035 DTUSAT-2 1 40030U 14033W 26255.98513021 .00004682 00000-0 24761-3 0 9990 2 40030 98.0914 259.3803 0006209 302.4998 57.5632 15.15999708665988 LILACSAT-2 1 40908U 15049K 26256.87637687 .00016231 00000-0 25018-3 0 9995 2 40908 97.4559 297.2273 0004563 291.6121 68.4646 15.54244847609513 Lapan A3 1 41603U 16040E 26256.87782487 .00002890 00000-0 91171-4 0 9999 2 41603 97.1564 250.1747 0011871 62.4496 297.7952 15.33590757568402 CAS-2T 1 41847U 16066G 26256.81658625 .00000859 00000-0 12998-3 0 9999 2 41847 98.3756 331.5326 0340475 220.4407 137.1023 14.44839531517595 TechnoSat 1 42829U 17042E 26256.66631965 .00002243 00000-0 16003-3 0 9996 2 42829 97.4393 51.0467 0018181 147.9986 212.2349 15.05390962500017 AO-91 1 43017U 17073E 26256.54915368 .00007232 00000-0 30696-3 0 9996 2 43017 97.4555 121.9596 0148137 23.8445 336.9556 15.13888271478757 S-Net D 1 43186U 18014G 26256.51832216 .00003641 00000-0 18556-3 0 9997 2 43186 97.5254 160.7517 0009862 75.3578 284.8748 15.17368221472159 S-Net B 1 43187U 18014H 26256.53157196 .00003864 00000-0 19685-3 0 9998 2 43187 97.5261 160.7540 0010383 71.2647 288.9712 15.17336888472156 S-Net A 1 43188U 18014J 26256.71455186 .00003718 00000-0 18935-3 0 9994 2 43188 97.5270 161.1617 0010328 71.3381 288.8973 15.17378320472180 S-Net C 1 43189U 18014K 26256.53598817 .00004055 00000-0 20645-3 0 9990 2 43189 97.5289 161.0727 0011580 64.9906 295.2529 15.17327237470700 Ten-Koh 1 43677U 18084G 26256.79556890 .00001092 00000-0 85491-4 0 9991 2 43677 98.0738 92.9082 0009469 170.8287 189.3111 15.03243105429479 PO-101 1 43678U 18084H 26256.85549219 .00001118 00000-0 93368-4 0 9997 2 43678 98.1172 96.9672 0011482 231.1454 128.8744 15.00723551429517 QO-100 1 43700U 18090A 26256.79615480 .00000135 00000-0 00000 0 0 9991 2 43700 0.0133 119.9537 0002578 84.8300 100.4249 1.00274701 28566 MinXSS-2 1 43758U 18099A 26255.70123890 .00037988 00000-0 60661-3 0 9991 2 43758 97.4455 334.9087 0005106 299.5297 60.5446 15.53088763427680 AO-95 1 43770U 18099N 26256.11730457 .00009003 00000-0 32803-3 0 9998 2 43770 97.4289 316.1018 0009145 45.8910 314.3080 15.28381885426648 SNUSat 2 1 43782U 18099AA 26256.40570587 .00005548 00000-0 23856-3 0 9997 2 43782 97.3968 308.4654 0009528 355.9770 4.1388 15.23014622426459 SnugLite 1 43784U 18099AC 26256.61406497 .00009109 00000-0 32764-3 0 9995 2 43784 97.3777 310.0879 0002331 13.8148 346.3156 15.28837186426829 ITASat 1 1 43786U 18099AE 26256.13059156 .00004532 00000-0 21309-3 0 9998 2 43786 97.3938 305.9044 0013396 50.8435 309.3988 15.20003237426264 EAGLET 1 1 43790U 18099AJ 26256.39680040 .00002803 00000-0 15994-3 0 9995 2 43790 97.4143 303.7216 0012099 47.1017 313.1228 15.13500872425672 ESEO 1 43792U 18099AL 26256.84523334 .00001689 00000-0 12476-3 0 9992 2 43792 97.3906 290.4183 0012693 36.4724 323.7365 15.04464347425137 JO-97 1 43803U 18099AX 26256.42754061 .00014121 00000-0 40151-3 0 9998 2 43803 97.4035 319.6922 0004111 326.6385 33.4599 15.36256439427167 Suomi 100 1 43804U 18099AY 26256.40409849 .00008286 00000-0 28540-3 0 9991 2 43804 97.4096 316.5437 0008554 335.7605 24.3232 15.30256529426901 ISAT 1 43879U 18111D 26256.40669752 .00445387 81317-4 11771-2 0 9997 2 43879 97.5799 199.9101 0007649 129.8623 230.3325 15.94655047425067 UWE-4 1 43880U 18111E 26256.79245483 .00037613 00000-0 63234-3 0 9999 2 43880 97.5820 189.6194 0007371 27.6586 332.5056 15.51636958424492 Prox-1 1 44339U 19036A 26256.63174825 .00011483 00000-0 10644-2 0 9993 2 44339 23.9940 242.5638 0005014 345.6910 14.3447 14.92459140386694 Taurus 1 1 44530U 19059C 26256.78382537 .00004633 00000-0 73145-3 0 9993 2 44530 98.6492 67.2122 0008966 39.4021 320.7835 14.72879211371689 TO-108 1 44881U 19093C 26256.82652104 .00000838 00000-0 10028-3 0 9999 2 44881 97.7464 326.8672 0014113 149.5717 210.6320 14.86632393364587 RS-44 1 44909U 19096E 26256.50417164 .00000014 00000-0 20469-4 0 9990 2 44909 82.5173 281.0220 0216464 298.0323 59.9033 12.79749360313643 SALSAT 1 46495U 20068K 26256.54673199 .00006002 00000-0 20364-3 0 9995 2 46495 97.8881 265.0847 0009299 3.5744 356.5560 15.30903467328871 CSS (TIANHE-1) 1 48274U 21035A 26256.81636110 .00018226 00000-0 22350-3 0 9997 2 48274 41.4678 143.9103 0002647 276.9141 83.1396 15.59899950307007 TeikyoSat 4 1 49396U 21102B 26256.80699240 .00001411 00000-0 91085-4 0 9990 2 49396 97.3629 282.8401 0011726 356.1507 3.9631 15.09770350266090 Z-Sat 1 49399U 21102E 26256.82493733 .00002090 00000-0 10327-3 0 9997 2 49399 97.3265 289.4637 0014901 301.0057 58.9713 15.18842922266894 KOSEN 1 1 49402U 21102H 26256.05994046 .00004928 00000-0 18330-3 0 9994 2 49402 97.3105 296.5412 0011586 253.7173 106.2793 15.27912208267431 HO-113 1 50466U 21131B 26256.83955832 .00000286 00000-0 10196-3 0 9999 2 50466 98.4981 348.7471 0004036 175.2417 184.8811 14.41423899247881 SNUGLITE 2 1 52899U 22065F 26256.85637671 .00000728 00000-0 14652-3 0 9990 2 52899 98.2333 41.6018 0008689 103.9758 256.2411 14.64483992223971 UmKA 1 (RS40S) 1 57172U 23091G 26256.82681868 .00004684 00000-0 20986-3 0 9995 2 57172 97.4956 315.1935 0012944 163.2085 196.9581 15.21665772177484 CubeBel-2 (EU11S) 1 57175U 23091K 26256.85962545 .00010445 00000-0 35007-3 0 9997 2 57175 97.4959 320.9513 0010115 153.2476 206.9289 15.31060621177869 RS-38S 1 57189U 23091Z 26256.86554884 .00015153 00000-0 39925-3 0 9990 2 57189 97.5008 328.2563 0008090 111.4229 248.7879 15.38586555178313 SONATE-2 1 59112U 24043Q 26256.41141779 .00047587 00000-0 47062-3 0 9999 2 59112 97.5620 52.7394 0005300 231.1436 128.9351 15.65723683141660 GRBBeta 1 60237U 24128C 26256.54033957 .00002230 00000-0 16070-3 0 9996 2 60237 61.9879 266.1487 0027706 154.1415 206.1070 15.07166394119589 Curium One 1 60242U 24128H 26256.46083587 .00005495 00000-0 31431-3 0 9991 2 60242 61.9765 252.8502 0026760 149.2372 211.0299 15.13604701119815 ROBUSTA-3A 1 60243U 24128J 26256.74129240 .00004375 00000-0 25901-3 0 9991 2 60243 61.9847 254.8302 0028754 146.0792 214.2150 15.12703565119811 CatSat 1 60246U 24125J 26256.85081111 .00101757 00000-0 78909-3 0 9995 2 60246 97.1958 111.2388 0015202 201.2783 158.7850 15.71362401121251 AO-123 1 61781U 24199AY 26256.81438080 .00006868 00000-0 19254-3 0 9993 2 61781 97.2845 124.6918 0013246 358.4600 1.6601 15.36829532147531 LASARsat 1 62391U 24247Q 26256.64377578 .00035417 00000-0 57872-3 0 9990 2 62391 44.9714 123.0918 0008985 194.3780 165.6858 15.51948145 97039 CroCube 1 62394U 24247T 26256.63683198 .00042932 00000-0 62992-3 0 9999 2 62394 44.9680 118.6820 0009410 202.9408 157.1066 15.54832267 97085 JINJUSat 1B 1 63210U 25052A 26256.16270086 .00012621 00000-0 36178-3 0 9997 2 63210 97.3870 153.1382 0004987 112.5371 247.6401 15.36026177 83596 NUSHSAT 1 1 63211U 25052B 26256.24045922 .00018107 00000-0 46721-3 0 9996 2 63211 97.3845 154.1289 0004678 113.6102 246.5635 15.39208824 83677 TEVEL2-4 1 63213U 25052D 26256.19086030 .00014749 00000-0 40307-3 0 9999 2 63213 97.3767 152.8503 0004064 121.7814 238.3827 15.37481034 83626 TEVEL2-5 1 63214U 25052E 26256.22262255 .00014112 00000-0 38859-3 0 9992 2 63214 97.3761 152.8025 0003930 123.5099 236.6521 15.37258003 83626 TEVEL2-6 1 63215U 25052F 26256.17182181 .00014001 00000-0 38596-3 0 9991 2 63215 97.3767 152.7363 0003823 123.7920 236.3689 15.37226093 83618 TEVEL2-1 1 63217U 25052H 26256.16929908 .00013200 00000-0 37162-3 0 9996 2 63217 97.3739 152.2461 0003668 134.5262 225.6283 15.36583687 83591 TEVEL2-3 1 63218U 25052J 26256.22526781 .00013574 00000-0 38110-3 0 9994 2 63218 97.3743 152.3376 0003474 131.4820 228.6723 15.36661277 83600 TEVEL2-2 1 63219U 25052K 26256.16893093 .00013373 00000-0 37628-3 0 9991 2 63219 97.3740 152.2499 0003662 134.7086 225.4457 15.36597772 83597 TEVEL2-9 1 63237U 25052AD 26256.26634227 .00013119 00000-0 39597-3 0 9999 2 63237 97.3800 151.5171 0005929 166.7963 193.3436 15.34383135 83527 TEVEL2-7 1 63238U 25052AE 26256.19560328 .00011849 00000-0 36207-3 0 9995 2 63238 97.3800 151.3212 0005944 168.8821 191.2554 15.34017821 83507 TEVEL2-8 1 63239U 25052AF 26256.46551936 .00013619 00000-0 41574-3 0 9991 2 63239 97.3809 151.5653 0005971 167.8302 192.3086 15.34016014 83540 SPIRONE 1 66657U 25274H 26256.74771818 .00001915 00000-0 18544-3 0 9995 2 66657 97.7479 184.7876 0013624 80.5908 279.6852 14.93840051 43441 K-HERO 1 66660U 25274L 26256.32656678 .00001251 00000-0 12174-3 0 9995 2 66660 97.7485 184.5971 0015458 85.3841 274.9145 14.94232683 43396 SNUGLITE-III DURI 1 66661U 25274M 26256.78174697 .00001059 00000-0 10390-3 0 9996 2 66661 97.7483 185.0667 0016108 84.8189 275.4869 14.94243742 43460 SAKHACUBE-CHOLBON 1 67290U 25313AU 26256.18170051 .00006377 00000-0 24832-3 0 9997 2 67290 97.3865 330.1704 0009965 52.8554 307.3593 15.26292868 39393 RS95S (QMR-KWT-2) 1 67291U 25313AV 26256.46305240 .00011024 00000-0 40121-3 0 9993 2 67291 97.3861 330.8513 0009260 49.9472 310.2578 15.28360312 39465 Ten-Koh2 1 68261U 25241B 26256.38886076 .00004009 00000-0 17252-3 0 9997 2 68261 51.6605 259.5277 0008169 76.3917 283.7971 15.24855676 28367 JACK-002 1 68417U 26067B 26256.84331902 .00005804 00000-0 26991-3 0 9995 2 68417 97.4667 214.4420 0001961 29.1087 331.0258 15.20345853 25418 DISCO 2 1 68431U 26067R 26256.87646161 .00006908 00000-0 32149-3 0 9998 2 68431 97.4700 214.4749 0003908 66.8999 293.2648 15.20248365 25411 HADES-SA (SpinnyONE) 1 68446U 26067AG 26256.14646937 .00014052 00000-0 62133-3 0 9990 2 68446 97.4489 213.3370 0008649 117.7122 242.4993 15.21773650 25296 PARUS-6U1 1 68456U 26067AS 26256.85225186 .00004465 00000-0 22079-3 0 9990 2 68456 97.4651 213.9467 0007309 108.9836 251.2191 15.18317154 25384 SAL-E 1 68458U 26067AU 26256.82435066 .00006797 00000-0 32908-3 0 9991 2 68458 97.4575 213.8200 0007468 116.2094 243.9909 15.18865851 25386 FSI-SAT 2 1 68792U 26088A 26256.38876209 .00002838 00000-0 19101-3 0 9996 2 68792 97.5192 43.5366 0014716 160.3638 199.8160 15.07427793 21574 OrigamiSat 2 1 68795U 26088D 26256.38535328 .00009795 00000-0 59650-3 0 9995 2 68795 97.5180 43.9966 0015483 133.6137 226.6380 15.10499938 21604 ARICA 2 1 68796U 26088E 26256.37052062 .00003936 00000-0 25206-3 0 9995 2 68796 97.5186 43.8491 0016424 133.2146 227.0458 15.09025470 21598 WASEDA-SAT-ZERO-II 1 68797U 26088F 26256.67767905 .00005234 00000-0 32948-3 0 9992 2 68797 97.5186 44.2002 0016329 131.4168 228.8467 15.09501683 21640 MANGARO-II-Piscus 1 68798U 26088G 26256.40407921 .00002776 00000-0 17728-3 0 9990 2 68798 97.5199 43.9723 0019917 135.6037 224.6793 15.09320288 21600 CO-128 1 69912U 26156AV 26256.26395624 .00001282 00000-0 13546-3 0 9990 2 69912 97.7478 155.5038 0001001 297.3303 62.7813 14.90940303 10121 MARINA 1 69920U 26156BD 26256.67967705 .00001885 00000-0 19066-3 0 9991 2 69920 97.7445 156.0100 0006038 294.2224 65.8364 14.92160181 10195 IO-86 1 40931U 26199.45381863 .00000000 00000-0 77536-4 0 07 2 40931 6.0006 322.6653 0012733 338.8432 273.6875 14.79294310 03 LILIUM-4 1 71922C 26067AC 26089.50133053 -.00014632 00000 0 -74472-3 0 04 2 71922 97.4497 49.1617 0004341 5.9603 355.7042 15.16896692 16